SCP
-0 0 0 0 0 0 0 0 0 0 0 0 0 0 0 0 0 0 0 0 0 0 0 0 0 0 0 0 0 0 0 0 0 0 0 0 0 0 0 0 0 0 0 0 0
-0 0 0 0 0 0 0 0 0 0 0 0 0 0 0 0 0 0 0 0 0 0 0 0 0 0 0 0 0 0 0 0 0 0 0 0 0 0 0 0 0 0 0 0 0
0 0 0 0 0 0 0 0 0 0 0 0 0 0 0 0 0 0 0 0 0 0 0 0 0 0 0 0 0 0 0 0 0 0 0 0 0 0 0 0 0 0 0 0 0
-0 0 0 0 0 0 0 0 0 0 0 0 0 0 0 0 0 0 0 0 0 0 0 0 0 0 0 0 0 0 0 0 0 0 0 0 0 0 0 0 0 0 0 0 0
-0 0 0 0 0 0 0 0 0 0 0 0 0 0 0 0 0 0 0 0 0 0 0 0 0 0 0 0 0 0 0 0 0 0 0 0 0 0 0 0 0 0 0 0 0
0 0 0 0 0 0 0 0 0 0 0 0 0 0 0 0 0 0 0 0 0 0 0 0 0 0 0 0 0 0 0 0 0 0 0 0 0 0 0 0 0 0 0 0 0
0 0 0 0 0 0 0 0 0 0 0 0 0 0 0 0 0 0 0 0 0 0 0 0 0 0 0 0 0 0 0 0 0 0 0 0 0 0 0 0 0 0 0 0 0
0 0 0 0 0 0 0 0 0 0 0 0 0 0 0 0 0 0 0 0 0 0 0 0 0 0 0 0 0 0 0 0 0 0 0 0 0 0 0 0 0 0 0 0 0
0 0 0 0 0 0 0 0 0 0 0 0 0 0 0 0 0 0 0 0 0 0 0 0 0 0 0 0 0 0 0 0 0 0 0 0 0 0 0 0 0 0 0 0 0
0 0 0 0 0 0 0 0 0 0 0 0 0 0 0 0 0 0 0 0 0 0 0 0 0 0 0 0 0 0 0 0 0 0 0 0 0 0 0 0 0 0 0 0 0
0 0 0 0 0 0 0 0 0 0 0 0 0 0 0 0 0 0 0 0 0 0 0 0 0 0 0 0 0 0 0 0 0 0 0 0 0 0 0 0 0 0 0 0 0
-0 0 0 0 0 0 0 0 0 0 0 0 0 0 0 0 0 0 0 0 0 0 0 0 0 0 0 0 0 0 0 0 0 0 0 0 0 0 0 0 0 0 0 0 0
-0 0 0 0 0 0 0 0 0 0 0 0 0 0 0 0 0 0 0 0 0 0 0 0 0 0 0 0 0 0 0 0 0 0 0 0 -0 0 0 0 0 0 0 0 0
-0 0 0 0 0 0 0 0 0 0 0 0 0 0 0 0 0 0 0 0 0 0 0 0 0 0 0 0 0 0 0 0 0 0 0 0 0 0 0 0 0 0 0 0 0
-0 -0 0 0 0 0 0 0 0 0 0 0 0 0 0 0 0 0 0 0 0 0 0 0 0 0 0 0 0 0 0 0 0 0 0 0 0 -0 0 0 0 0 0 0 0
-0 -0 0 0 0 0 0 0 0 0 0 0 0 0 0 0 0 0 0 0 0 0 0 0 0 0 0 0 0 0 0 0 0 0 0 0 0 -0 0 0 0 0 0 0 0
-0 -0 -0 0 0 0 0 0 0 0 0 0 0 0 0 0 0 0 0 0 0 0 0 0 0 0 0 0 0 0 0 0 0 0 0 0 0 0 0 0 0 0 0 0 0
-0 -0 -0 -0 0 0 0 0 0 0 0 0 0 0 0 0 0 0 0 0 0 0 0 0 0 0 0 0 0 0 0 0 0 0 0 0 0 0 0 0 0 0 0 0 0
-0 -0 -0 -0 0 0 0 0 0 0 0 0 0 0 0 0 0 0 0 0 0 0 0 0 0 0 0 0 0 0 0 0 0 0 0 0 0 0 0 0 0 0 0 0 0
0 0 -0 -0 -0 0 0 0 0 0 0 0 0 0 0 0 0 0 0 0 0 0 0 0 0 0 0 0 0 0 0 0 0 0 0 0 0 0 0 0 0 0 0 0 0
0 0 -0 -0 0 0 0 0 0 0 0 0 0 0 0 0 0 0 0 0 0 0 0 0 0 0 0 0 0 0 0 0 0 0 0 0 0 0 0 0 0 0 0 0 0
0 0 -0 0 0 0 0 0 0 0 0 0 0 0 0 0 0 0 0 0 0 0 0 0 0 0 0 0 0 0 0 0 0 0 0 0 0 0 0 0 0 0 0 0 0
0 0 0 0 0 0 0 0 0 0 0 0 0 0 0 0 0 0 0 0 0 0 0 0 0 0 0 0 0 0 0 0 0 0 0 0 0 0 0 0 0 0 0 0 0
0 0 0 0 0 0 0 0 0 0 0 0 0 0 0 0 0 0 0 0 0 0 0 0 0 0 0 0 0 0 0 0 0 0 0 0 0 0 0 0 0 0 0 0 0
0 0 0 0 0 0 0 0 0 0 0 0 0 0 0 0 0 0 0 0 0 0 0 0 0 0 0 0 0 0 0 0 0 0 0 0 0 0 0 0 0 0 0 0 0
0 0 0 0 0 0 0 0 0 0 0 0 0 0 0 0 0 0 0 0 0 0 0 0 0 0 0 0 0 0 0 0 0 0 0 0 0 0 0 0 0 0 0 0 0
0 0 0 0 0 0 0 0 0 0 0 0 0 0 0 0 0 0 0 0 0 0 0 0 0 0 0 0 0 0 0 0 0 0 0 0 0 0 0 0 0 0 0 0 0
Wind_Speed_500mb
12 13 9 4 17 3 8 23 24 16 27 30 32 30 35 28 23 21 5 12 16 15 16 18 21 19 16 8 7 2 5 8 11 8 11 14 4 19 21 22 18 17 35 32 33
18 15 13 2 12 3 10 20 20 11 19 18 32 32 39 31 26 7 9 14 22 22 22 16 21 17 11 5 5 5 3 8 8 7 9 19 23 12 9 30 27 24 27 31 34
19 20 19 5 2 3 15 10 25 15 8 10 24 30 42 31 19 9 16 20 27 26 17 13 22 11 10 9 10 11 7 14 7 7 6 15 11 9 23 14 19 12 17 30 33
23 20 22 17 7 7 17 24 20 12 10 19 29 30 46 27 11 12 19 26 25 25 19 23 19 7 6 7 6 2 13 15 8 5 4 6 15 15 26 12 10 16 18 20 25
26 20 22 21 4 5 28 27 17 18 27 29 29 36 33 9 8 24 22 31 24 23 20 15 17 11 9 11 5 5 11 24 17 19 18 17 19 16 19 19 14 17 13 10 14
24 22 16 18 12 11 33 24 17 21 24 27 36 34 12 11 8 22 29 31 26 18 18 8 9 15 20 10 10 4 12 15 6 14 12 10 8 3 10 18 19 17 15 12 14
22 23 19 16 15 10 22 17 16 19 21 28 40 22 7 15 7 24 30 29 23 17 16 19 16 3 25 15 12 10 9 7 6 3 6 10 3 4 26 25 24 21 16 15 15
22 21 17 14 23 15 20 22 20 24 29 34 34 14 8 11 17 32 28 28 22 22 15 19 23 25 14 28 11 6 7 4 9 8 4 5 7 16 23 24 21 22 16 11 11
21 21 18 16 14 15 23 23 25 27 24 27 14 8 12 21 19 27 16 22 23 19 17 15 8 20 20 11 8 2 5 2 3 14 7 10 9 13 17 19 23 21 18 16 14
19 20 19 17 7 16 29 25 31 27 24 24 13 7 11 16 16 25 26 24 14 18 12 6 7 9 8 8 3 8 5 8 8 14 13 12 14 11 21 24 28 31 27 21 20
16 17 18 15 11 19 35 35 18 11 18 13 15 21 16 18 22 17 28 20 17 18 8 13 6 8 17 15 10 4 12 10 10 7 3 25 23 17 33 29 32 34 32 29 26
14 15 18 17 10 17 30 16 19 15 14 15 16 15 11 9 12 16 27 14 25 14 13 5 10 11 12 9 5 4 10 9 5 7 3 14 23 23 25 36 45 41 36 32 31
15 14 18 18 21 17 33 32 24 16 5 8 7 12 5 10 7 23 23 8 18 17 16 10 5 12 11 7 8 8 8 7 5 8 7 9 21 25 23 35 41 40 44 46 49
15 14 14 20 18 24 24 24 15 9 5 6 7 6 6 6 4 17 19 6 11 22 15 13 8 10 13 13 12 9 12 4 10 6 5 11 12 11 29 34 34 47 54 62 55
12 14 19 6 19 12 21 23 9 8 4 7 9 10 8 6 8 13 12 3 11 11 11 3 13 9 12 13 12 1 8 4 5 9 11 11 9 10 13 26 30 46 53 52 57
11 12 12 21 15 22 23 11 4 5 2 3 6 7 10 6 3 9 8 2 9 14 14 10 8 3 11 11 10 8 6 4 3 6 6 20 15 8 7 15 19 37 53 59 58
11 11 13 9 12 23 27 8 6 5 5 3 4 9 14 9 7 9 13 10 10 7 12 14 13 4 1 9 11 10 8 1 4 3 10 2 15 18 25 14 16 19 53 60 58
12 12 15 15 17 25 26 8 4 2 5 9 6 15 13 11 7 11 13 20 25 14 4 16 9 20 16 15 10 19 15 8 8 4 7 5 12 10 5 4 11 11 13 56 57
12 14 14 13 16 35 23 2 5 4 8 9 5 4 12 6 4 11 16 21 17 25 10 8 15 11 21 11 15 15 22 17 13 4 2 10 13 16 9 4 2 9 37 60 62
13 9 7 13 16 27 7 4 4 5 7 9 6 9 10 11 13 12 12 8 18 24 25 10 10 2 8 4 15 8 2 13 7 5 10 12 15 16 9 13 13 14 34 48 54
14 3 3 14 19 8 5 5 4 7 2 4 10 6 11 11 19 13 8 5 10 16 27 7 5 5 8 12 14 7 6 11 13 11 6 6 9 6 8 5 17 22 34 49 53
7 3 9 18 6 2 4 6 4 10 3 3 4 5 10 6 14 14 10 11 25 23 26 13 3 15 16 14 14 22 32 26 10 9 13 13 23 11 14 13 20 33 42 42 52
12 5 9 15 4 6 4 7 5 9 11 10 14 4 7 12 6 10 10 10 17 9 12 14 9 9 12 3 7 10 20 17 25 15 23 9 13 3 14 11 11 28 39 44 49
10 3 2 9 5 4 7 9 6 17 8 11 8 5 3 10 12 6 6 4 3 14 14 1 8 19 26 21 16 13 26 30 29 21 42 35 54 9 9 14 21 27 40 46 56
13 5 11 7 12 11 8 5 8 8 10 12 8 12 11 7 11 16 19 10 5 7 4 8 10 8 26 31 26 28 16 35 34 43 33 58 50 41 32 21 37 46 48 51 58
12 10 10 4 5 20 10 10 14 9 13 11 14 19 22 16 10 4 9 9 3 4 12 15 14 20 37 42 26 30 32 18 34 53 48 55 56 42 33 24 13 47 55 62 64
24 17 7 16 13 12 10 12 15 13 22 12 24 4 8 9 18 18 22 31 26 9 7 8 8 13 27 29 26 31 43 49 45 27 34 38 67 28 25 24 45 51 60 71 72
Wind_Direction_500mb
45 1 351 275 216 186 180 154 176 181 185 192 192 202 191 164 150 141 153 205 157 126 115 126 144 122 122 106 57 342 178 167 170 175 98 37 109 54 58 79 58 72 102 123 162
31 21 27 79 223 226 152 144 167 192 177 177 188 199 176 151 137 136 193 168 147 113 89 120 147 138 83 67 28 318 285 120 84 69 74 65 69 73 119 98 90 86 113 137 159
23 35 46 34 59 88 105 137 161 183 146 159 182 186 154 138 114 199 174 145 142 129 115 139 144 115 68 70 17 5 354 110 86 77 100 122 76 50 103 71 44 96 129 144 163
30 49 39 42 229 63 119 133 132 148 160 146 150 163 146 131 140 194 163 151 144 122 111 132 142 99 90 82 41 144 69 92 118 94 65 69 111 84 66 98 100 139 150 145 176
31 51 44 25 168 66 131 133 108 123 137 139 147 156 144 126 109 159 153 150 138 108 133 131 160 123 109 101 88 71 16 103 81 102 87 90 86 114 99 110 118 129 132 133 145
30 35 55 38 128 96 116 107 106 114 126 137 144 141 112 139 138 161 151 149 109 101 120 95 100 98 109 80 65 48 83 44 123 78 101 102 124 150 134 123 134 131 123 160 171
27 30 44 35 121 90 126 115 131 134 148 153 148 116 74 140 142 150 151 142 111 121 108 94 112 45 129 107 101 93 117 117 31 71 100 128 173 198 154 161 154 150 169 187 199
26 35 44 34 128 88 140 147 129 125 127 146 145 84 81 131 132 140 152 150 144 122 128 96 91 113 104 126 104 89 55 155 148 139 165 172 236 148 167 168 162 164 166 188 210
30 35 43 44 132 108 142 121 121 115 120 137 108 96 107 107 118 137 137 159 130 118 118 106 113 110 137 126 85 323 127 180 182 198 143 198 266 139 174 192 184 183 188 185 189
33 41 49 48 130 102 140 127 118 115 93 82 117 120 129 122 136 143 147 157 135 140 109 146 153 150 194 210 161 163 172 186 217 196 225 222 247 168 197 208 209 193 188 194 192
38 51 56 61 101 116 137 124 114 87 58 14 104 82 111 126 112 130 137 150 147 159 164 199 209 184 188 193 72 28 165 197 220 141 270 242 254 211 194 207 220 202 193 196 205
45 58 63 75 138 71 148 87 96 130 91 57 63 78 105 135 111 159 151 172 158 183 170 118 239 202 52 61 103 275 181 212 168 95 153 292 277 265 208 205 207 208 203 202 202
56 57 70 93 109 94 106 95 117 93 70 65 80 69 98 119 118 175 164 183 188 198 198 206 82 195 131 176 200 224 252 224 247 141 219 295 273 239 243 207 209 216 213 206 214
57 62 69 105 114 115 105 118 101 90 93 124 163 96 102 112 94 157 174 218 222 206 186 247 172 169 148 224 207 246 177 271 283 171 260 138 291 250 225 224 198 208 212 205 207
61 66 67 162 119 125 129 135 104 45 116 82 78 138 150 173 110 201 203 251 266 223 167 185 141 172 188 216 207 82 83 135 203 250 274 185 274 273 229 220 212 211 210 206 207
61 71 87 99 126 134 146 117 86 43 218 65 332 165 157 178 64 106 178 151 307 257 226 231 22 254 219 204 214 104 164 166 286 240 279 217 180 252 197 231 232 211 210 209 203
78 72 85 103 127 141 141 121 71 204 298 150 186 180 206 163 165 193 198 196 185 167 211 249 207 150 357 226 184 159 162 307 263 241 237 185 186 246 281 244 221 207 204 205 199
84 80 85 99 122 143 153 55 192 34 213 99 182 177 201 172 226 198 204 213 231 247 232 210 220 165 183 212 173 207 198 180 226 233 308 29 243 259 171 80 61 189 228 192 191
96 81 79 93 127 143 126 192 41 291 120 132 72 158 189 191 328 184 239 227 220 223 229 243 225 131 152 195 206 183 219 238 316 350 349 239 256 286 93 107 220 208 171 179 187
93 84 83 109 127 140 77 155 228 44 333 162 177 193 174 182 210 197 198 227 231 225 232 314 294 94 103 60 280 255 169 207 232 227 241 245 245 243 220 223 185 190 174 174 186
111 162 149 129 126 108 203 148 220 151 175 252 227 198 253 194 199 222 240 210 204 210 208 176 271 356 71 210 188 193 231 236 176 213 228 296 259 239 108 109 182 184 186 181 185
121 85 162 150 83 107 191 183 303 179 166 218 291 294 213 270 198 224 238 246 190 215 210 191 274 243 204 221 224 231 218 215 209 223 220 252 257 241 170 151 157 182 190 194 200
147 120 167 168 191 196 178 294 242 181 212 192 212 33 341 228 224 253 194 274 194 222 192 165 223 254 316 224 199 221 235 244 241 255 250 206 263 53 93 133 173 175 189 196 202
167 141 120 202 238 279 140 237 238 212 204 186 199 151 208 253 244 230 216 253 320 225 287 310 239 201 222 221 160 200 219 227 224 232 242 238 252 247 201 198 190 200 201 200 203
178 205 173 179 229 219 183 139 193 216 226 218 212 208 189 235 253 239 234 202 263 242 224 127 243 304 279 271 273 264 224 224 227 234 231 242 248 247 251 253 215 224 197 195 205
183 170 184 169 187 188 203 217 197 207 164 228 223 200 212 212 215 101 34 15 62 263 196 175 241 241 265 267 263 272 270 256 237 235 242 253 260 253 247 279 238 191 196 203 212
203 207 171 178 175 170 199 209 215 209 211 201 208 235 281 236 255 242 253 242 223 209 300 293 230 198 243 243 262 253 236 243 245 255 240 239 248 258 254 250 255 218 215 221 228
Wind_Speed_850mb
12 13 9 4 17 3 8 23 24 16 27 30 32 30 35 28 23 21 5 12 16 15 16 18 21 19 16 8 7 2 5 8 11 8 11 14 4 19 21 22 18 17 35 32 33
18 15 13 2 12 3 10 20 20 11 19 18 32 32 39 31 26 7 9 14 22 22 22 16 21 17 11 5 5 5 3 8 8 7 9 19 23 12 9 30 27 24 27 31 34
19 20 19 5 2 3 15 10 25 15 8 10 24 30 42 31 19 9 16 20 27 26 17 13 22 11 10 9 10 11 7 14 7 7 6 15 11 9 23 14 19 12 17 30 33
23 20 22 17 7 7 17 24 20 12 10 19 29 30 46 27 11 12 19 26 25 25 19 23 19 7 6 7 6 2 13 15 8 5 4 6 15 15 26 12 10 16 18 20 25
26 20 22 21 4 5 28 27 17 18 27 29 29 36 33 9 8 24 22 31 24 23 20 15 17 11 9 11 5 5 11 24 17 19 18 17 19 16 19 19 14 17 13 10 14
24 22 16 18 12 11 33 24 17 21 24 27 36 34 12 11 8 22 29 31 26 18 18 8 9 15 20 10 10 4 12 15 6 14 12 10 8 3 10 18 19 17 15 12 14
22 23 19 16 15 10 22 17 16 19 21 28 40 22 7 15 7 24 30 29 23 17 16 19 16 3 25 15 12 10 9 7 6 3 6 10 3 4 26 25 24 21 16 15 15
22 21 17 14 23 15 20 22 20 24 29 34 34 14 8 11 17 32 28 28 22 22 15 19 23 25 14 28 11 6 7 4 9 8 4 5 7 16 23 24 21 22 16 11 11
21 21 18 16 14 15 23 23 25 27 24 27 14 8 12 21 19 27 16 22 23 19 17 15 8 20 20 11 8 2 5 2 3 14 7 10 9 13 17 19 23 21 18 16 14
19 20 19 17 7 16 29 25 31 27 24 24 13 7 11 16 16 25 26 24 14 18 12 6 7 9 8 8 3 8 5 8 8 14 13 12 14 11 21 24 28 31 27 21 20
16 17 18 15 11 19 35 35 18 11 18 13 15 21 16 18 22 17 28 20 17 18 8 13 6 8 17 15 10 4 12 10 10 7 3 25 23 17 33 29 32 34 32 29 26
14 15 18 17 10 17 30 16 19 15 14 15 16 15 11 9 12 16 27 14 25 14 13 5 10 11 12 9 5 4 10 9 5 7 3 14 23 23 25 36 45 41 36 32 31
15 14 18 18 21 17 33 32 24 16 5 8 7 12 5 10 7 23 23 8 18 17 16 10 5 12 11 7 8 8 8 7 5 8 7 9 21 25 23 35 41 40 44 46 49
15 14 14 20 18 24 24 24 15 9 5 6 7 6 6 6 4 17 19 6 11 22 15 13 8 10 13 13 12 9 12 4 10 6 5 11 12 11 29 34 34 47 54 62 55
12 14 19 6 19 12 21 23 9 8 4 7 9 10 8 6 8 13 12 3 11 11 11 3 13 9 12 13 12 1 8 4 5 9 11 11 9 10 13 26 30 46 53 52 57
11 12 12 21 15 22 23 11 4 5 2 3 6 7 10 6 3 9 8 2 9 14 14 10 8 3 11 11 10 8 6 4 3 6 6 20 15 8 7 15 19 37 53 59 58
11 11 13 9 12 23 27 8 6 5 5 3 4 9 14 9 7 9 13 10 10 7 12 14 13 4 1 9 11 10 8 1 4 3 10 2 15 18 25 14 16 19 53 60 58
12 12 15 15 17 25 26 8 4 2 5 9 6 15 13 11 7 11 13 20 25 14 4 16 9 20 16 15 10 19 15 8 8 4 7 5 12 10 5 4 11 11 13 56 57
12 14 14 13 16 35 23 2 5 4 8 9 5 4 12 6 4 11 16 21 17 25 10 8 15 11 21 11 15 15 22 17 13 4 2 10 13 16 9 4 2 9 37 60 62
13 9 7 13 16 27 7 4 4 5 7 9 6 9 10 11 13 12 12 8 18 24 25 10 10 2 8 4 15 8 2 13 7 5 10 12 15 16 9 13 13 14 34 48 54
14 3 3 14 19 8 5 5 4 7 2 4 10 6 11 11 19 13 8 5 10 16 27 7 5 5 8 12 14 7 6 11 13 11 6 6 9 6 8 5 17 22 34 49 53
7 3 9 18 6 2 4 6 4 10 3 3 4 5 10 6 14 14 10 11 25 23 26 13 3 15 16 14 14 22 32 26 10 9 13 13 23 11 14 13 20 33 42 42 52
12 5 9 15 4 6 4 7 5 9 11 10 14 4 7 12 6 10 10 10 17 9 12 14 9 9 12 3 7 10 20 17 25 15 23 9 13 3 14 11 11 28 39 44 49
10 3 2 9 5 4 7 9 6 17 8 11 8 5 3 10 12 6 6 4 3 14 14 1 8 19 26 21 16 13 26 30 29 21 42 35 54 9 9 14 21 27 40 46 56
13 5 11 7 12 11 8 5 8 8 10 12 8 12 11 7 11 16 19 10 5 7 4 8 10 8 26 31 26 28 16 35 34 43 33 58 50 41 32 21 37 46 48 51 58
12 10 10 4 5 20 10 10 14 9 13 11 14 19 22 16 10 4 9 9 3 4 12 15 14 20 37 42 26 30 32 18 34 53 48 55 56 42 33 24 13 47 55 62 64
24 17 7 16 13 12 10 12 15 13 22 12 24 4 8 9 18 18 22 31 26 9 7 8 8 13 27 29 26 31 43 49 45 27 34 38 67 28 25 24 45 51 60 71 72
Wind_Direction_850mb
45 1 351 275 216 186 180 154 176 181 185 192 192 202 191 164 150 141 153 205 157 126 115 126 144 122 122 106 57 342 178 167 170 175 98 37 109 54 58 79 58 72 102 123 162
31 21 27 79 223 226 152 144 167 192 177 177 188 199 176 151 137 136 193 168 147 113 89 120 147 138 83 67 28 318 285 120 84 69 74 65 69 73 119 98 90 86 113 137 159
23 35 46 34 59 88 105 137 161 183 146 159 182 186 154 138 114 199 174 145 142 129 115 139 144 115 68 70 17 5 354 110 86 77 100 122 76 50 103 71 44 96 129 144 163
30 49 39 42 229 63 119 133 132 148 160 146 150 163 146 131 140 194 163 151 144 122 111 132 142 99 90 82 41 144 69 92 118 94 65 69 111 84 66 98 100 139 150 145 176
31 51 44 25 168 66 131 133 108 123 137 139 147 156 144 126 109 159 153 150 138 108 133 131 160 123 109 101 88 71 16 103 81 102 87 90 86 114 99 110 118 129 132 133 145
30 35 55 38 128 96 116 107 106 114 126 137 144 141 112 139 138 161 151 149 109 101 120 95 100 98 109 80 65 48 83 44 123 78 101 102 124 150 134 123 134 131 123 160 171
27 30 44 35 121 90 126 115 131 134 148 153 148 116 74 140 142 150 151 142 111 121 108 94 112 45 129 107 101 93 117 117 31 71 100 128 173 198 154 161 154 150 169 187 199
26 35 44 34 128 88 140 147 129 125 127 146 145 84 81 131 132 140 152 150 144 122 128 96 91 113 104 126 104 89 55 155 148 139 165 172 236 148 167 168 162 164 166 188 210
30 35 43 44 132 108 142 121 121 115 120 137 108 96 107 107 118 137 137 159 130 118 118 106 113 110 137 126 85 323 127 180 182 198 143 198 266 139 174 192 184 183 188 185 189
33 41 49 48 130 102 140 127 118 115 93 82 117 120 129 122 136 143 147 157 135 140 109 146 153 150 194 210 161 163 172 186 217 196 225 222 247 168 197 208 209 193 188 194 192
38 51 56 61 101 116 137 124 114 87 58 14 104 82 111 126 112 130 137 150 147 159 164 199 209 184 188 193 72 28 165 197 220 141 270 242 254 211 194 207 220 202 193 196 205
45 58 63 75 138 71 148 87 96 130 91 57 63 78 105 135 111 159 151 172 158 183 170 118 239 202 52 61 103 275 181 212 168 95 153 292 277 265 208 205 207 208 203 202 202
56 57 70 93 109 94 106 95 117 93 70 65 80 69 98 119 118 175 164 183 188 198 198 206 82 195 131 176 200 224 252 224 247 141 219 295 273 239 243 207 209 216 213 206 214
57 62 69 105 114 115 105 118 101 90 93 124 163 96 102 112 94 157 174 218 222 206 186 247 172 169 148 224 207 246 177 271 283 171 260 138 291 250 225 224 198 208 212 205 207
61 66 67 162 119 125 129 135 104 45 116 82 78 138 150 173 110 201 203 251 266 223 167 185 141 172 188 216 207 82 83 135 203 250 274 185 274 273 229 220 212 211 210 206 207
61 71 87 99 126 134 146 117 86 43 218 65 332 165 157 178 64 106 178 151 307 257 226 231 22 254 219 204 214 104 164 166 286 240 279 217 180 252 197 231 232 211 210 209 203
78 72 85 103 127 141 141 121 71 204 298 150 186 180 206 163 165 193 198 196 185 167 211 249 207 150 357 226 184 159 162 307 263 241 237 185 186 246 281 244 221 207 204 205 199
84 80 85 99 122 143 153 55 192 34 213 99 182 177 201 172 226 198 204 213 231 247 232 210 220 165 183 212 173 207 198 180 226 233 308 29 243 259 171 80 61 189 228 192 191
96 81 79 93 127 143 126 192 41 291 120 132 72 158 189 191 328 184 239 227 220 223 229 243 225 131 152 195 206 183 219 238 316 350 349 239 256 286 93 107 220 208 171 179 187
93 84 83 109 127 140 77 155 228 44 333 162 177 193 174 182 210 197 198 227 231 225 232 314 294 94 103 60 280 255 169 207 232 227 241 245 245 243 220 223 185 190 174 174 186
111 162 149 129 126 108 203 148 220 151 175 252 227 198 253 194 199 222 240 210 204 210 208 176 271 356 71 210 188 193 231 236 176 213 228 296 259 239 108 109 182 184 186 181 185
121 85 162 150 83 107 191 183 303 179 166 218 291 294 213 270 198 224 238 246 190 215 210 191 274 243 204 221 224 231 218 215 209 223 220 252 257 241 170 151 157 182 190 194 200
147 120 167 168 191 196 178 294 242 181 212 192 212 33 341 228 224 253 194 274 194 222 192 165 223 254 316 224 199 221 235 244 241 255 250 206 263 53 93 133 173 175 189 196 202
167 141 120 202 238 279 140 237 238 212 204 186 199 151 208 253 244 230 216 253 320 225 287 310 239 201 222 221 160 200 219 227 224 232 242 238 252 247 201 198 190 200 201 200 203
178 205 173 179 229 219 183 139 193 216 226 218 212 208 189 235 253 239 234 202 263 242 224 127 243 304 279 271 273 264 224 224 227 234 231 242 248 247 251 253 215 224 197 195 205
183 170 184 169 187 188 203 217 197 207 164 228 223 200 212 212 215 101 34 15 62 263 196 175 241 241 265 267 263 272 270 256 237 235 242 253 260 253 247 279 238 191 196 203 212
203 207 171 178 175 170 199 209 215 209 211 201 208 235 281 236 255 242 253 242 223 209 300 293 230 198 243 243 262 253 236 243 245 255 240 239 248 258 254 250 255 218 215 221 228